Time,TemperatureF,DewpointF,PressureIn,WindDirection,WindDirectionDegrees,WindSpeedMPH,WindSpeedGustMPH,Humidity,HourlyPrecipIn,Conditions,Clouds,dailyrainin,SoftwareType,DateUTC
2013-10-16 00:00:00,62.7,60.6,29.79,SW,225,3.0,12.0,93,0.05,,,0.00,Wunderground v.1.12,2013-10-16 04:00:00,
2013-10-16 00:10:00,62.7,60.6,29.79,SSW,209,3.0,3.0,93,0.00,,,0.00,Wunderground v.1.12,2013-10-16 04:10:00,
2013-10-16 00:20:00,62.7,60.6,29.79,SSW,193,2.0,7.0,93,0.00,,,0.00,Wunderground v.1.12,2013-10-16 04:20:00,
2013-10-16 00:30:00,62.9,60.8,29.79,SW,225,3.0,10.0,93,0.03,,,0.00,Wunderground v.1.12,2013-10-16 04:30:00,
2013-10-16 00:40:00,62.9,60.8,29.79,SW,227,3.0,3.0,93,0.00,,,0.00,Wunderground v.1.12,2013-10-16 04:40:00,
2013-10-16 00:50:00,62.9,60.8,29.79,WSW,240,3.0,3.0,93,0.00,,,0.00,Wunderground v.1.12,2013-10-16 04:50:00,
2013-10-16 01:00:00,62.9,60.8,29.78,SW,225,2.0,12.0,93,0.00,,,0.00,Wunderground v.1.12,2013-10-16 05:00:00,
2013-10-16 01:10:00,62.9,60.8,29.78,WSW,258,2.0,3.0,93,0.00,,,0.00,Wunderground v.1.12,2013-10-16 05:10:00,
2013-10-16 01:20:00,62.9,60.8,29.78,SSW,208,2.0,2.0,93,0.00,,,0.00,Wunderground v.1.12,2013-10-16 05:20:00,
2013-10-16 01:30:00,62.9,60.8,29.78,SW,225,2.0,11.0,93,0.00,,,0.00,Wunderground v.1.12,2013-10-16 05:30:00,
2013-10-16 01:40:00,62.9,60.8,29.78,SW,217,2.0,2.0,93,0.00,,,0.00,Wunderground v.1.12,2013-10-16 05:40:00,
2013-10-16 01:50:00,62.7,60.6,29.78,SW,216,3.0,5.0,93,0.00,,,0.00,Wunderground v.1.12,2013-10-16 05:50:00,
2013-10-16 02:00:00,62.6,60.5,29.78,SSW,203,3.0,11.0,93,0.00,,,0.00,Wunderground v.1.12,2013-10-16 06:00:00,
2013-10-16 02:10:00,62.6,60.5,29.78,SSW,212,2.0,2.0,93,0.00,,,0.00,Wunderground v.1.12,2013-10-16 06:10:00,
2013-10-16 02:20:00,62.6,60.5,29.78,WSW,244,1.0,1.0,93,0.00,,,0.00,Wunderground v.1.12,2013-10-16 06:20:00,
2013-10-16 02:30:00,62.4,60.3,29.79,SW,225,1.0,8.0,93,0.00,,,0.00,Wunderground v.1.12,2013-10-16 06:30:00,
2013-10-16 02:40:00,62.4,60.3,29.79,SW,229,2.0,5.0,93,0.00,,,0.00,Wunderground v.1.12,2013-10-16 06:40:00,
2013-10-16 02:50:00,62.4,60.3,29.78,SSW,203,1.0,8.0,93,0.00,,,0.00,Wunderground v.1.12,2013-10-16 06:50:00,
2013-10-16 03:00:00,62.3,60.2,29.78,SW,225,1.0,8.0,93,0.00,,,0.00,Wunderground v.1.12,2013-10-16 07:00:00,
2013-10-16 03:10:00,62.1,60.1,29.78,SW,227,1.0,1.0,93,0.00,,,0.00,Wunderground v.1.12,2013-10-16 07:10:00,
2013-10-16 03:20:00,62.1,60.1,29.78,SW,215,1.0,1.0,93,0.00,,,0.00,Wunderground v.1.12,2013-10-16 07:20:00,
2013-10-16 03:30:00,61.8,59.8,29.77,SW,225,0.0,6.0,93,0.00,,,0.00,Wunderground v.1.12,2013-10-16 07:30:00,
2013-10-16 03:40:00,61.6,59.6,29.77,SW,229,0.0,0.0,93,0.00,,,0.00,Wunderground v.1.12,2013-10-16 07:40:00,
2013-10-16 03:50:00,61.5,59.5,29.77,SSW,212,0.0,0.0,93,0.00,,,0.00,Wunderground v.1.12,2013-10-16 07:50:00,
2013-10-16 04:00:00,61.5,59.5,29.76,SSW,203,0.0,1.0,93,0.00,,,0.00,Wunderground v.1.12,2013-10-16 08:00:00,
2013-10-16 04:10:00,61.2,59.2,29.76,SSW,195,0.0,5.0,93,0.00,,,0.00,Wunderground v.1.12,2013-10-16 08:10:00,
2013-10-16 04:20:00,61.2,59.2,29.76,SW,220,0.0,0.0,93,0.00,,,0.00,Wunderground v.1.12,2013-10-16 08:20:00,
2013-10-16 04:30:00,61.0,59.0,29.76,SSW,203,0.0,3.0,93,0.00,,,0.00,Wunderground v.1.12,2013-10-16 08:30:00,
2013-10-16 04:40:00,60.9,58.9,29.76,SSW,210,0.0,0.0,93,0.00,,,0.00,Wunderground v.1.12,2013-10-16 08:40:00,
2013-10-16 04:50:00,60.9,58.9,29.76,SSW,210,0.0,0.0,93,0.00,,,0.00,Wunderground v.1.12,2013-10-16 08:50:00,
2013-10-16 05:00:00,61.0,59.3,29.76,SW,225,0.0,5.0,94,0.00,,,0.00,Wunderground v.1.12,2013-10-16 09:00:00,
2013-10-16 05:10:00,61.2,59.5,29.76,SW,223,0.0,0.0,94,0.00,,,0.00,Wunderground v.1.12,2013-10-16 09:10:00,
2013-10-16 05:20:00,61.0,59.3,29.76,SW,215,0.0,0.0,94,0.00,,,0.00,Wunderground v.1.12,2013-10-16 09:20:00,
2013-10-16 05:40:00,60.9,59.2,29.76,SW,225,0.0,3.0,94,0.00,,,0.00,Wunderground v.1.12,2013-10-16 09:40:00,
2013-10-16 05:50:00,60.7,59.0,29.76,SSW,198,0.0,5.0,94,0.00,,,0.00,Wunderground v.1.12,2013-10-16 09:50:00,
2013-10-16 06:10:00,60.5,58.8,29.76,SSW,203,1.0,6.0,94,0.00,,,0.00,Wunderground v.1.12,2013-10-16 10:10:00,
2013-10-16 06:20:00,60.2,58.5,29.76,SW,226,0.0,0.0,94,0.00,,,0.00,Wunderground v.1.12,2013-10-16 10:20:00,
2013-10-16 06:40:00,60.1,58.4,29.76,N/A,-737280,0.0,0.0,94,0.00,,,0.00,Wunderground v.1.12,2013-10-16 10:40:00,
2013-10-16 06:50:00,59.6,57.9,29.76,SW,226,0.0,0.0,94,0.00,,,0.00,Wunderground v.1.12,2013-10-16 10:50:00,
2013-10-16 07:00:00,59.6,57.9,29.76,SW,225,0.0,2.0,94,0.00,,,0.00,Wunderground v.1.12,2013-10-16 11:00:00,
2013-10-16 07:10:00,59.5,57.8,29.76,SW,224,0.0,0.0,94,0.00,,,0.00,Wunderground v.1.12,2013-10-16 11:10:00,
2013-10-16 07:20:00,59.3,57.6,29.77,SW,226,0.0,0.0,94,0.00,,,0.00,Wunderground v.1.12,2013-10-16 11:20:00,
2013-10-16 07:30:00,59.3,57.6,29.77,SW,225,0.0,4.0,94,0.00,,,0.00,Wunderground v.1.12,2013-10-16 11:30:00,
2013-10-16 07:40:00,59.5,57.8,29.77,SW,215,0.0,0.0,94,0.00,,,0.00,Wunderground v.1.12,2013-10-16 11:40:00,
2013-10-16 07:50:00,59.5,57.8,29.77,SW,219,1.0,1.0,94,0.00,,,0.00,Wunderground v.1.12,2013-10-16 11:50:00,
2013-10-16 08:00:00,59.6,57.9,29.77,SW,225,1.0,6.0,94,0.00,,,0.00,Wunderground v.1.12,2013-10-16 12:00:00,
2013-10-16 08:10:00,59.6,57.9,29.77,WSW,246,2.0,4.0,94,0.00,,,0.00,Wunderground v.1.12,2013-10-16 12:10:00,
2013-10-16 08:20:00,59.6,57.9,29.77,SW,222,2.0,2.0,94,0.00,,,0.00,Wunderground v.1.12,2013-10-16 12:20:00,
2013-10-16 08:30:00,59.5,57.8,29.78,SW,225,2.0,7.0,94,0.00,,,0.00,Wunderground v.1.12,2013-10-16 12:30:00,
2013-10-16 08:40:00,57.0,54.7,29.78,West,263,4.0,4.0,92,0.00,,,0.00,Wunderground v.1.12,2013-10-16 12:40:00,
2013-10-16 08:50:00,56.5,54.2,29.78,West,270,3.0,12.0,92,0.00,,,0.00,Wunderground v.1.12,2013-10-16 12:50:00,
2013-10-16 09:00:00,55.9,53.3,29.79,WSW,248,1.0,8.0,91,0.00,,,0.00,Wunderground v.1.12,2013-10-16 13:00:00,
2013-10-16 09:10:00,55.7,52.5,29.79,West,271,1.0,1.0,89,0.00,,,0.00,Wunderground v.1.12,2013-10-16 13:10:00,
2013-10-16 09:20:00,56.0,52.5,29.79,WSW,250,0.0,0.0,88,0.00,,,0.00,Wunderground v.1.12,2013-10-16 13:20:00,
2013-10-16 09:30:00,56.0,52.2,29.78,WSW,248,1.0,10.0,87,0.00,,,0.00,Wunderground v.1.12,2013-10-16 13:30:00,
2013-10-16 09:40:00,55.9,50.8,29.79,WSW,253,3.0,5.0,83,0.00,,,0.00,Wunderground v.1.12,2013-10-16 13:40:00,
2013-10-16 09:50:00,56.2,49.8,29.79,SW,226,4.0,4.0,79,0.00,,,0.00,Wunderground v.1.12,2013-10-16 13:50:00,
2013-10-16 10:00:00,56.6,48.8,29.79,West,270,4.0,12.0,75,0.00,,,0.00,Wunderground v.1.12,2013-10-16 14:00:00,
2013-10-16 10:10:00,56.7,48.5,29.79,West,274,4.0,7.0,74,0.00,,,0.00,Wunderground v.1.12,2013-10-16 14:10:00,
2013-10-16 10:20:00,57.2,48.6,29.79,SW,233,5.0,6.0,73,0.00,,,0.00,Wunderground v.1.12,2013-10-16 14:20:00,
2013-10-16 10:30:00,57.5,48.9,29.78,West,270,4.0,10.0,73,0.00,,,0.00,Wunderground v.1.12,2013-10-16 14:30:00,
2013-10-16 10:40:00,58.0,48.6,29.79,WSW,246,3.0,4.0,71,0.00,,,0.00,Wunderground v.1.12,2013-10-16 14:40:00,
2013-10-16 10:50:00,58.3,48.2,29.79,SSW,205,5.0,7.0,69,0.00,,,0.00,Wunderground v.1.12,2013-10-16 14:50:00,
2013-10-16 11:00:00,58.4,48.3,29.79,WSW,248,6.0,19.0,69,0.00,,,0.00,Wunderground v.1.12,2013-10-16 15:00:00,
2013-10-16 11:10:00,58.9,48.4,29.79,WSW,258,5.0,5.0,68,0.00,,,0.00,Wunderground v.1.12,2013-10-16 15:10:00,
2013-10-16 11:20:00,59.2,49.0,29.79,NW,326,2.0,2.0,69,0.00,,,0.00,Wunderground v.1.12,2013-10-16 15:20:00,
2013-10-16 11:30:00,59.3,48.3,29.79,WSW,248,4.0,14.0,67,0.00,,,0.00,Wunderground v.1.12,2013-10-16 15:30:00,
2013-10-16 11:40:00,59.3,47.5,29.79,West,265,7.0,7.0,65,0.00,,,0.00,Wunderground v.1.12,2013-10-16 15:40:00,
2013-10-16 11:50:00,59.6,47.8,29.78,West,277,5.0,5.0,65,0.00,,,0.00,Wunderground v.1.12,2013-10-16 15:50:00,
2013-10-16 12:00:00,59.8,47.6,29.78,WSW,248,6.0,16.0,64,0.00,,,0.00,Wunderground v.1.12,2013-10-16 16:00:00,
2013-10-16 12:20:00,59.8,47.6,29.78,WSW,248,6.0,17.0,64,0.00,,,0.00,Wunderground v.1.12,2013-10-16 16:20:00,
2013-10-16 12:30:00,59.9,46.0,29.78,WSW,248,7.0,20.0,60,0.00,,,0.00,Wunderground v.1.12,2013-10-16 16:30:00,
2013-10-16 12:40:00,60.2,45.8,29.78,WSW,248,5.0,5.0,59,0.00,,,0.00,Wunderground v.1.12,2013-10-16 16:40:00,
2013-10-16 12:50:00,60.4,46.4,29.78,WSW,248,5.0,14.0,60,0.00,,,0.00,Wunderground v.1.12,2013-10-16 16:50:00,
2013-10-16 13:00:00,61.0,46.1,29.78,WSW,248,5.0,14.0,58,0.00,,,0.00,Wunderground v.1.12,2013-10-16 17:00:00,
2013-10-16 13:10:00,61.3,45.9,29.78,WSW,251,5.0,5.0,57,0.00,,,0.00,Wunderground v.1.12,2013-10-16 17:10:00,
2013-10-16 13:20:00,61.3,45.9,29.78,SW,230,6.0,12.0,57,0.00,,,0.00,Wunderground v.1.12,2013-10-16 17:20:00,
2013-10-16 13:30:00,61.0,46.1,29.78,WSW,248,7.0,17.0,58,0.00,,,0.00,Wunderground v.1.12,2013-10-16 17:30:00,
2013-10-16 13:40:00,61.2,45.8,29.78,West,265,6.0,6.0,57,0.00,,,0.00,Wunderground v.1.12,2013-10-16 17:40:00,
2013-10-16 13:50:00,61.2,46.3,29.77,West,270,5.0,17.0,58,0.00,,,0.00,Wunderground v.1.12,2013-10-16 17:50:00,
2013-10-16 14:00:00,61.3,45.0,29.78,West,270,6.0,19.0,55,0.00,,,0.00,Wunderground v.1.12,2013-10-16 18:00:00,
2013-10-16 14:10:00,61.5,46.1,29.78,WNW,288,6.0,6.0,57,0.00,,,0.00,Wunderground v.1.12,2013-10-16 18:10:00,
2013-10-16 14:20:00,62.0,45.2,29.78,WSW,258,5.0,14.0,54,0.00,,,0.00,Wunderground v.1.12,2013-10-16 18:20:00,
2013-10-16 14:30:00,62.4,46.0,29.77,WSW,248,4.0,20.0,55,0.00,,,0.00,Wunderground v.1.12,2013-10-16 18:30:00,
2013-10-16 14:40:00,62.9,45.5,29.77,WSW,254,3.0,3.0,53,0.00,,,0.00,Wunderground v.1.12,2013-10-16 18:40:00,
2013-10-16 14:50:00,63.1,46.2,29.78,West,263,4.0,7.0,54,0.00,,,0.00,Wunderground v.1.12,2013-10-16 18:50:00,
2013-10-16 15:00:00,63.2,45.8,29.77,WSW,248,4.0,17.0,53,0.00,,,0.00,Wunderground v.1.12,2013-10-16 19:00:00,
2013-10-16 15:10:00,62.3,44.9,29.77,SW,234,6.0,10.0,53,0.00,,,0.00,Wunderground v.1.12,2013-10-16 19:10:00,
2013-10-16 15:20:00,61.8,45.5,29.78,West,277,5.0,5.0,55,0.00,,,0.00,Wunderground v.1.12,2013-10-16 19:20:00,
2013-10-16 15:30:00,62.4,45.0,29.77,West,270,4.0,17.0,53,0.00,,,0.00,Wunderground v.1.12,2013-10-16 19:30:00,
2013-10-16 15:40:00,62.4,44.0,29.77,North,354,6.0,6.0,51,0.00,,,0.00,Wunderground v.1.12,2013-10-16 19:40:00,
2013-10-16 15:50:00,62.0,43.7,29.78,NW,315,6.0,6.0,51,0.00,,,0.00,Wunderground v.1.12,2013-10-16 19:50:00,
2013-10-16 16:00:00,61.8,44.5,29.78,WSW,248,6.0,17.0,53,0.00,,,0.00,Wunderground v.1.12,2013-10-16 20:00:00,
2013-10-16 16:10:00,61.8,45.0,29.78,West,260,6.0,8.0,54,0.00,,,0.00,Wunderground v.1.12,2013-10-16 20:10:00,
2013-10-16 16:20:00,62.0,44.7,29.78,NW,313,4.0,4.0,53,0.00,,,0.00,Wunderground v.1.12,2013-10-16 20:20:00,
2013-10-16 16:30:00,61.6,44.3,29.78,NW,315,4.0,17.0,53,0.00,,,0.00,Wunderground v.1.12,2013-10-16 20:30:00,
2013-10-16 16:40:00,60.7,44.9,29.78,WNW,296,4.0,4.0,56,0.00,,,0.00,Wunderground v.1.12,2013-10-16 20:40:00,
2013-10-16 16:50:00,60.7,44.9,29.78,West,270,5.0,16.0,56,0.00,,,0.00,Wunderground v.1.12,2013-10-16 20:50:00,
2013-10-16 17:10:00,59.9,43.7,29.79,WSW,248,5.0,17.0,55,0.00,,,0.00,Wunderground v.1.12,2013-10-16 21:10:00,
2013-10-16 17:20:00,59.5,44.2,29.80,WSW,254,5.0,5.0,57,0.00,,,0.00,Wunderground v.1.12,2013-10-16 21:20:00,
2013-10-16 17:30:00,59.3,44.1,29.80,WSW,248,4.0,12.0,57,0.00,,,0.00,Wunderground v.1.12,2013-10-16 21:30:00,
2013-10-16 17:40:00,58.7,44.4,29.80,WSW,239,3.0,3.0,59,0.00,,,0.00,Wunderground v.1.12,2013-10-16 21:40:00,
2013-10-16 17:50:00,58.0,44.2,29.80,WSW,258,3.0,5.0,60,0.00,,,0.00,Wunderground v.1.12,2013-10-16 21:50:00,
2013-10-16 18:00:00,57.6,43.8,29.80,West,270,2.0,12.0,60,0.00,,,0.00,Wunderground v.1.12,2013-10-16 22:00:00,
2013-10-16 18:10:00,57.2,43.9,29.80,WSW,246,2.0,2.0,61,0.00,,,0.00,Wunderground v.1.12,2013-10-16 22:10:00,
2013-10-16 18:20:00,56.7,43.8,29.81,West,260,3.0,3.0,62,0.00,,,0.00,Wunderground v.1.12,2013-10-16 22:20:00,
2013-10-16 18:30:00,56.6,44.1,29.81,West,270,2.0,11.0,63,0.00,,,0.00,Wunderground v.1.12,2013-10-16 22:30:00,
2013-10-16 18:40:00,56.3,44.3,29.81,WNW,282,1.0,1.0,64,0.00,,,0.00,Wunderground v.1.12,2013-10-16 22:40:00,
2013-10-16 18:50:00,56.2,44.6,29.81,West,268,1.0,1.0,65,0.00,,,0.00,Wunderground v.1.12,2013-10-16 22:50:00,
2013-10-16 19:00:00,55.9,44.3,29.82,WSW,248,2.0,8.0,65,0.00,,,0.00,Wunderground v.1.12,2013-10-16 23:00:00,
2013-10-16 19:10:00,55.7,44.1,29.82,SW,230,2.0,2.0,65,0.00,,,0.00,Wunderground v.1.12,2013-10-16 23:10:00,
2013-10-16 19:20:00,55.7,44.5,29.82,WNW,282,0.0,0.0,66,0.00,,,0.00,Wunderground v.1.12,2013-10-16 23:20:00,
2013-10-16 19:30:00,55.6,44.4,29.82,West,270,1.0,7.0,66,0.00,,,0.00,Wunderground v.1.12,2013-10-16 23:30:00,
2013-10-16 19:40:00,55.4,44.6,29.82,West,268,3.0,3.0,67,0.00,,,0.00,Wunderground v.1.12,2013-10-16 23:40:00,
2013-10-16 19:50:00,55.3,44.5,29.83,SW,227,2.0,2.0,67,0.00,,,0.00,Wunderground v.1.12,2013-10-16 23:50:00,
2013-10-16 20:00:00,55.1,44.3,29.84,West,270,3.0,11.0,67,0.00,,,0.00,Wunderground v.1.12,2013-10-17 00:00:00,
2013-10-16 20:10:00,54.8,44.0,29.84,SW,236,4.0,6.0,67,0.00,,,0.00,Wunderground v.1.12,2013-10-17 00:10:00,
2013-10-16 20:20:00,54.7,44.3,29.84,West,280,5.0,5.0,68,0.00,,,0.00,Wunderground v.1.12,2013-10-17 00:20:00,
2013-10-16 20:30:00,54.5,44.5,29.85,WSW,248,3.0,12.0,69,0.00,,,0.00,Wunderground v.1.12,2013-10-17 00:30:00,
2013-10-16 20:40:00,54.4,44.4,29.85,WSW,257,3.0,7.0,69,0.00,,,0.00,Wunderground v.1.12,2013-10-17 00:40:00,
2013-10-16 20:50:00,54.4,44.8,29.85,SW,234,2.0,2.0,70,0.00,,,0.00,Wunderground v.1.12,2013-10-17 00:50:00,
2013-10-16 21:00:00,54.2,44.6,29.85,SW,225,1.0,7.0,70,0.00,,,0.00,Wunderground v.1.12,2013-10-17 01:00:00,
2013-10-16 21:10:00,54.1,44.5,29.85,SW,215,3.0,3.0,70,0.00,,,0.00,Wunderground v.1.12,2013-10-17 01:10:00,
2013-10-16 21:20:00,54.1,44.5,29.85,SSE,158,2.0,2.0,70,0.00,,,0.00,Wunderground v.1.12,2013-10-17 01:20:00,
2013-10-16 21:30:00,53.9,44.7,29.86,SSW,203,2.0,11.0,71,0.00,,,0.00,Wunderground v.1.12,2013-10-17 01:30:00,
2013-10-16 21:40:00,53.9,44.7,29.86,SSW,199,2.0,2.0,71,0.00,,,0.00,Wunderground v.1.12,2013-10-17 01:40:00,
2013-10-16 21:50:00,53.8,44.6,29.86,WSW,239,2.0,4.0,71,0.00,,,0.00,Wunderground v.1.12,2013-10-17 01:50:00,
2013-10-16 22:10:00,53.8,44.6,29.86,WSW,248,1.0,8.0,71,0.00,,,0.00,Wunderground v.1.12,2013-10-17 02:10:00,
2013-10-16 22:20:00,53.5,44.3,29.86,WSW,244,2.0,2.0,71,0.00,,,0.00,Wunderground v.1.12,2013-10-17 02:20:00,
2013-10-16 22:30:00,53.5,44.7,29.86,WSW,248,1.0,9.0,72,0.00,,,0.00,Wunderground v.1.12,2013-10-17 02:30:00,
2013-10-16 22:40:00,53.2,44.8,29.86,West,268,0.0,0.0,73,0.00,,,0.00,Wunderground v.1.12,2013-10-17 02:40:00,
2013-10-16 22:50:00,52.9,44.8,29.86,WSW,257,0.0,0.0,74,0.00,,,0.00,Wunderground v.1.12,2013-10-17 02:50:00,
2013-10-16 23:00:00,52.5,44.4,29.86,WSW,248,0.0,5.0,74,0.00,,,0.00,Wunderground v.1.12,2013-10-17 03:00:00,
2013-10-16 23:10:00,52.2,44.5,29.86,SW,232,1.0,1.0,75,0.00,,,0.00,Wunderground v.1.12,2013-10-17 03:10:00,
2013-10-16 23:20:00,52.0,44.7,29.86,SW,232,0.0,0.0,76,0.00,,,0.00,Wunderground v.1.12,2013-10-17 03:20:00,
2013-10-16 23:30:00,51.7,44.4,29.86,SW,225,0.0,1.0,76,0.00,,,0.00,Wunderground v.1.12,2013-10-17 03:30:00,
2013-10-16 23:40:00,51.4,44.4,29.86,SW,232,0.0,0.0,77,0.00,,,0.00,Wunderground v.1.12,2013-10-17 03:40:00,
2013-10-16 23:50:00,51.3,44.7,29.86,SW,225,0.0,3.0,78,0.00,,,0.00,Wunderground v.1.12,2013-10-17 03:50:00,